FLOCK 2K-25 (42884 NORAD) Tracking and Keplerian Element Data

This shows tracking and keplerian element data for the satellite.

Feedback or suggestion? Click here.




ElementValue
Catalog42884
NameFLOCK 2K-25
Epoch Orbit3283
Epoch Day45.68983823
Epoch Year2018
RAAN308.5131
Inclination96.9928
Eccentricity0.0012203
Argument of Perigee176.2187
Mean Anonmoly183.9152
Mean Motion15.35674032
Decay Rate7.314E-05
L11 42884U 17042BM 18045.68983823 .00007314 00000-0 21252-3 0 9995
L22 42884 96.9928 308.5131 0012203 176.2187 183.9152 15.35674032 32833

Live tracking and technical data element details for FLOCK 2K-25 (NORAD 42884). FLOCK 2K-25 can be tracked NOW for your location showing map with azimuth and elevation plus other details from your city location.

Track the satellite on the map from your city or location and see movement details for azimuth, elevation, latitude, longitude, range, height, and movement on the map or in text.







IsCatalogInMostPopularTable: catalog: 42884, numindb: 151
Update: records affected: 1



GetName: 42884 FLOCK 2K-25

Hit Count: updated at: Mon, 19 Nov 2018 10:59:10 GMT